Home > Weather > Wiener Neustadt > Past weeks

Flag for Austria Weather for the Past 2 Weeks in Wiener Neustadt, Lower Austria, Austria

Now
48 °F

Overcast.


Feels Like: 43 °F
Forecast: 45 / 67 °F
Wind: 9 mph from Northwest

Location: Eisenstadt

Current Time: May 5, 2016 at 6:55:18 AM

Latest Report: May 5, 2016 at 6:00 AM


Visibility: 6 mi

Pressure: 30.23 "Hg

Humidity: 81%

Dew Point: 42 °F

Location of Wiener NeustadtLocation

Historic Weather in Wiener Neustadt — Graph

°F

Wiener Neustadt Temperature Yesterday

Maximum temperature yesterday: 54 °F (at 3:00 PM)
Minimum temperature yesterday: 48 °F (at 12:00 PM)
Average temperature yesterday: 50 °F

High & Low Weather Summary for the Past Weeks

 TemperatureHumidityPressure
High69 °F (Apr 22, 3:00 PM)93% (May 2, 12:00 AM)30.39 "Hg (May 2, 12:00 AM)
Low33 °F (Apr 26, 4:00 AM)28% (Apr 20, 5:00 PM)29.59 "Hg (Apr 24, 12:00 AM)
Average52 °F62%29.98 "Hg
* Reported Apr 20 5:00 AM — May 5 5:00 AM, Wiener Neustadt, Weather by CustomWeather, © 2016

Note: Actual official high and low records may vary slightly from our data, if they occured in-between our weather recording intervals... More about our weather records

Advertising

Wiener Neustadt Weather History for the Previous 24 Hours

Scroll right to see more
 ConditionsComfort  
Time TempWeatherWind HumidityBarometerVisibility
5:00 AM
Thu, May 5
48 °FOvercast.9 mph79%30.24 "Hg6 mi
4:00 AM48 °FOvercast.9 mph79%30.22 "Hg6 mi
3:00 AM48 °FCool.10 mph79%30.23 "HgN/A
2:00 AM47 °FLight rain. Overcast.10 mph82%30.23 "Hg6 mi
1:00 AM48 °FCool.10 mph79%30.24 "HgN/A
12:00 AM49 °FCool.12 mph76%30.24 "HgN/A
11:00 PM
Wed, May 4
49 °FCool.12 mph75%30.23 "HgN/A
10:00 PM49 °FCool.12 mph75%30.22 "HgN/A
9:00 PM49 °FCool.10 mph76%30.19 "HgN/A
8:00 PM50 °FPartly sunny.12 mph74%30.19 "Hg16 mi
7:00 PM50 °FOvercast.12 mph71%30.19 "Hg19 mi
6:00 PM51 °FCool.9 mph70%30.18 "HgN/A
5:00 PM53 °FPartly sunny.13 mph66%30.15 "Hg19 mi
4:00 PM54 °FCool.13 mph64%30.14 "HgN/A
3:00 PM54 °FCool.14 mph64%30.14 "HgN/A
2:00 PM52 °FOvercast.13 mph67%30.14 "Hg12 mi
1:00 PM50 °FCool.12 mph73%30.13 "HgN/A
12:00 PM48 °FFog.12 mph79%30.14 "HgN/A
11:00 AM49 °FCool.12 mph78%30.13 "HgN/A
10:00 AM48 °FCool.12 mph80%30.11 "HgN/A
9:00 AM49 °FFog.10 mph85%30.10 "HgN/A
7:00 AM49 °FLight rain. Overcast.8 mph86%30.07 "Hg6 mi
6:00 AM50 °FLight rain. Overcast.5 mph89%30.04 "Hg6 mi
Weather by CustomWeather, © 2016

See weather overviewHow to use our weather pages